Location: Newark
(33.7579°N, 132.8129°E)
Time: 23:27:51
(UTC+00:00)

Hubble Space Telescope - Visible Passes

Search period start: 14 November 2019 00:00
Search period end: 24 November 2019 00:00
Orbit: 536 x 540 km, 28.5° (Epoch: 14 November)

Date Brightness Start Highest point End Pass type
(mag) Time Alt. Az. Time Alt. Az. Time Alt. Az.
17 Nov 3.4 10:31:04 10° SW 10:31:53 14° SSW 10:31:53 14° SSW visible
18 Nov 3.2 08:41:50 10° S 08:43:11 11° SSE 08:44:32 10° SE visible
18 Nov 3.0 10:20:15 10° SW 10:21:57 20° SSW 10:21:57 20° SSW visible
19 Nov 3.1 08:30:16 10° S 08:32:29 14° SSE 08:34:42 10° SE visible
19 Nov 2.4 10:09:29 10° SW 10:12:00 27° SSW 10:12:00 27° SSW visible
20 Nov 2.0 09:58:45 10° WSW 10:02:02 33° S 10:02:02 33° S visible
21 Nov 1.7 09:48:04 10° WSW 09:51:53 37° S 09:52:04 37° SSE visible
22 Nov 1.6 09:37:24 10° WSW 09:41:15 39° S 09:42:05 34° SSE visible
23 Nov 1.7 09:26:45 10° WSW 09:30:37 39° S 09:32:08 28° SE visible
